When you browse on this site, cookies collect data to enhance your experience and personalize the content and advertising you see.
Visit our Privacy Policy to learn more. By continuing to use the site, you agree to this use of cookies and data.
  • In United Kingdom
  • List of Countries
  • For 7 days
  • Water Temperature
  • Satellite Maps
  • Weather Map
  • Weather Widgets
  • user-avatar
    Login

    Hourly Weather Santa Maria Asuncion Tlaxiaco

    Today, 19 June, Wednesday

    Time Temperature Precipitation Wind Pressure Humidity
    00:00 +16°C° 0.2 mm 1 mps 595 mmHg 86%
    01:00 +16°C° 0.2 mm 1 mps 594 mmHg 86%
    02:00 +16°C° 0.2 mm 1 mps 594 mmHg 86%
    03:00 +16°C° 0 mm 1 mps 594 mmHg 87%
    04:00 +15°C° 0 mm 1 mps 594 mmHg 87%
    05:00 +16°C° 0 mm 1 mps 594 mmHg 88%
    06:00 +19°C° 0 mm 1 mps 595 mmHg 82%
    07:00 +21°C° 0 mm 1 mps 596 mmHg 75%
    08:00 +22°C° 0 mm 1 mps 597 mmHg 68%
    09:00 +23°C° 1 mm 1 mps 597 mmHg 66%
    10:00 +24°C° 1 mm 1 mps 597 mmHg 64%
    11:00 +25°C° 1 mm 1 mps 597 mmHg 62%
    12:00 +25°C° 1.4 mm 1 mps 596 mmHg 62%
    13:00 +25°C° 1.4 mm 1 mps 596 mmHg 62%
    14:00 +25°C° 1.4 mm 1 mps 595 mmHg 62%
    15:00 +24°C° 1.3 mm 1 mps 595 mmHg 67%
    16:00 +23°C° 1.3 mm 1 mps 594 mmHg 73%
    17:00 +21°C° 1.3 mm 2 mps 594 mmHg 78%
    18:00 +21°C° 0.6 mm 1 mps 594 mmHg 81%
    19:00 +20°C° 0.6 mm 1 mps 594 mmHg 84%
    20:00 +17°C° 0.6 mm 0 mps 594 mmHg 86%
    21:00 +17°C° 1.3 mm 0 mps 594 mmHg 86%
    22:00 +16°C° 1.3 mm 0 mps 594 mmHg 87%
    23:00 +16°C° 1.3 mm 0 mps 595 mmHg 87%

    Tomorrow, 20 June, Thursday

    Time Temperature Precipitation Wind Pressure Humidity
    00:00 +16°C° 1.2 mm 0 mps 594 mmHg 88%
    01:00 +16°C° 1.2 mm 0 mps 594 mmHg 89%
    02:00 +15°C° 1.2 mm 0 mps 593 mmHg 89%
    03:00 +15°C° 0 mm 0 mps 593 mmHg 89%
    04:00 +15°C° 0 mm 0 mps 593 mmHg 88%
    05:00 +16°C° 0 mm 1 mps 593 mmHg 88%
    06:00 +19°C° 0 mm 1 mps 594 mmHg 80%
    07:00 +21°C° 0 mm 1 mps 595 mmHg 73%
    08:00 +21°C° 0 mm 0 mps 596 mmHg 65%
    09:00 +24°C° 0.1 mm 1 mps 597 mmHg 60%
    10:00 +25°C° 0.1 mm 1 mps 597 mmHg 54%
    11:00 +27°C° 0.1 mm 1 mps 597 mmHg 49%
    12:00 +27°C° 0.4 mm 1 mps 597 mmHg 51%
    13:00 +26°C° 0.4 mm 2 mps 596 mmHg 52%
    14:00 +26°C° 0.4 mm 2 mps 595 mmHg 54%
    15:00 +25°C° 0.5 mm 2 mps 595 mmHg 61%
    16:00 +24°C° 0.5 mm 2 mps 594 mmHg 67%
    17:00 +23°C° 0.5 mm 2 mps 594 mmHg 74%
    18:00 +21°C° 0.1 mm 1 mps 594 mmHg 79%
    19:00 +20°C° 0.1 mm 1 mps 594 mmHg 84%
    20:00 +19°C° 0.1 mm 1 mps 594 mmHg 89%
    21:00 +18°C° 0 mm 1 mps 594 mmHg 89%
    22:00 +18°C° 0 mm 1 mps 594 mmHg 88%
    23:00 +16°C° 0 mm 0 mps 594 mmHg 88%

    Day after tomorrow, 21 June, Friday

    Time Temperature Precipitation Wind Pressure Humidity
    00:00 +15°C° 0 mm 0 mps 594 mmHg 88%
    01:00 +15°C° 0 mm 0 mps 593 mmHg 89%
    02:00 +15°C° 0 mm 0 mps 593 mmHg 89%
    03:00 +15°C° 0 mm 0 mps 593 mmHg 89%
    04:00 +14°C° 0 mm 0 mps 593 mmHg 89%
    05:00 +14°C° 0 mm 0 mps 593 mmHg 90%
    06:00 +16°C° 0 mm 0 mps 594 mmHg 82%
    07:00 +21°C° 0 mm 1 mps 596 mmHg 74%
    08:00 +23°C° 0 mm 1 mps 597 mmHg 66%
    09:00 +24°C° 0.1 mm 1 mps 597 mmHg 61%
    10:00 +25°C° 0.1 mm 1 mps 597 mmHg 55%
    11:00 +27°C° 0.1 mm 1 mps 598 mmHg 50%
    12:00 +26°C° 0.6 mm 2 mps 597 mmHg 55%
    13:00 +25°C° 0.6 mm 2 mps 596 mmHg 61%
    14:00 +24°C° 0.6 mm 3 mps 595 mmHg 66%
    15:00 +23°C° 1 mm 2 mps 595 mmHg 70%
    16:00 +23°C° 1 mm 2 mps 594 mmHg 74%
    17:00 +21°C° 1 mm 2 mps 594 mmHg 78%
    18:00 +21°C° 0.8 mm 1 mps 594 mmHg 81%
    19:00 +20°C° 0.8 mm 1 mps 595 mmHg 84%
    20:00 +19°C° 0.8 mm 1 mps 595 mmHg 87%
    21:00 +18°C° 0.8 mm 1 mps 595 mmHg 87%
    22:00 +18°C° 0.8 mm 1 mps 595 mmHg 86%
    23:00 +15°C° 0.8 mm 0 mps 595 mmHg 86%

    22 June, Saturday

    Time Temperature Precipitation Wind Pressure Humidity
    00:00 +15°C° 0.7 mm 0 mps 594 mmHg 86%
    01:00 +15°C° 0.7 mm 0 mps 594 mmHg 87%
    02:00 +15°C° 0.7 mm 0 mps 594 mmHg 87%
    03:00 +15°C° 0.1 mm 0 mps 594 mmHg 87%
    04:00 +15°C° 0.1 mm 0 mps 594 mmHg 87%
    05:00 +15°C° 0.1 mm 0 mps 594 mmHg 87%
    06:00 +17°C° 0 mm 0 mps 595 mmHg 80%
    07:00 +18°C° 0 mm 0 mps 596 mmHg 74%
    08:00 +22°C° 0 mm 1 mps 597 mmHg 68%
    09:00 +24°C° 0.1 mm 1 mps 597 mmHg 61%
    10:00 +25°C° 0.1 mm 1 mps 598 mmHg 55%
    11:00 +26°C° 0.1 mm 1 mps 598 mmHg 49%
    12:00 +26°C° 0.5 mm 2 mps 597 mmHg 53%
    13:00 +25°C° 0.5 mm 2 mps 596 mmHg 57%
    14:00 +25°C° 0.5 mm 3 mps 596 mmHg 62%
    15:00 +23°C° 1 mm 2 mps 595 mmHg 69%
    16:00 +21°C° 1 mm 2 mps 594 mmHg 77%
    17:00 +20°C° 1 mm 2 mps 594 mmHg 84%
    18:00 +19°C° 0.4 mm 2 mps 594 mmHg 86%
    19:00 +19°C° 0.4 mm 1 mps 594 mmHg 89%
    20:00 +19°C° 0.4 mm 1 mps 595 mmHg 91%
    21:00 +18°C° 0.4 mm 1 mps 595 mmHg 91%
    22:00 +18°C° 0.4 mm 1 mps 595 mmHg 91%
    23:00 +18°C° 0.4 mm 1 mps 595 mmHg 91%

    23 June, Sunday

    Time Temperature Precipitation Wind Pressure Humidity
    00:00 +16°C° 0.2 mm 0 mps 595 mmHg 91%
    01:00 +16°C° 0.2 mm 0 mps 594 mmHg 91%
    02:00 +16°C° 0.2 mm 0 mps 594 mmHg 91%
    03:00 +15°C° 0 mm 0 mps 594 mmHg 91%
    04:00 +15°C° 0 mm 0 mps 594 mmHg 91%
    05:00 +15°C° 0 mm 0 mps 594 mmHg 91%
    06:00 +17°C° 0.1 mm 0 mps 595 mmHg 85%
    07:00 +18°C° 0.1 mm 0 mps 596 mmHg 78%
    08:00 +22°C° 0.1 mm 1 mps 597 mmHg 72%
    09:00 +23°C° 0.8 mm 1 mps 597 mmHg 69%
    10:00 +23°C° 0.8 mm 1 mps 597 mmHg 67%
    11:00 +24°C° 0.8 mm 1 mps 597 mmHg 64%
    12:00 +24°C° 1.8 mm 1 mps 596 mmHg 68%
    13:00 +23°C° 1.8 mm 1 mps 595 mmHg 71%
    14:00 +23°C° 1.8 mm 1 mps 594 mmHg 75%
    15:00 +22°C° 1.9 mm 1 mps 594 mmHg 81%
    16:00 +20°C° 1.9 mm 2 mps 593 mmHg 86%
    17:00 +18°C° 1.9 mm 2 mps 593 mmHg 92%
    18:00 +19°C° 0.9 mm 1 mps 593 mmHg 93%
    19:00 +19°C° 0.9 mm 1 mps 594 mmHg 94%
    20:00 +19°C° 0.9 mm 1 mps 594 mmHg 95%
    21:00 +18°C° 0.6 mm 1 mps 594 mmHg 94%
    22:00 +18°C° 0.6 mm 1 mps 594 mmHg 94%
    23:00 +18°C° 0.6 mm 1 mps 594 mmHg 94%

    24 June, Monday

    Time Temperature Precipitation Wind Pressure Humidity
    00:00 +18°C° 0.4 mm 1 mps 594 mmHg 94%
    01:00 +16°C° 0.4 mm 1 mps 594 mmHg 95%
    02:00 +15°C° 0.4 mm 0 mps 593 mmHg 95%
    03:00 +15°C° 0.1 mm 0 mps 593 mmHg 95%
    04:00 +14°C° 0.1 mm 0 mps 593 mmHg 95%
    05:00 +14°C° 0.1 mm 0 mps 593 mmHg 95%
    06:00 +16°C° 0.1 mm 0 mps 594 mmHg 89%
    07:00 +18°C° 0.1 mm 0 mps 595 mmHg 82%
    08:00 +21°C° 0.1 mm 1 mps 596 mmHg 76%
    09:00 +22°C° 0.6 mm 1 mps 596 mmHg 73%
    10:00 +23°C° 0.6 mm 1 mps 596 mmHg 70%
    11:00 +24°C° 0.6 mm 2 mps 596 mmHg 68%
    12:00 +23°C° 1.6 mm 2 mps 595 mmHg 71%
    13:00 +23°C° 1.6 mm 2 mps 594 mmHg 75%
    14:00 +21°C° 1.6 mm 3 mps 594 mmHg 79%
    15:00 +20°C° 1.3 mm 2 mps 593 mmHg 83%
    16:00 +19°C° 1.3 mm 2 mps 593 mmHg 86%
    17:00 +18°C° 1.3 mm 2 mps 593 mmHg 90%
    18:00 +19°C° 2.6 mm 1 mps 593 mmHg 92%
    19:00 +18°C° 2.6 mm 1 mps 593 mmHg 94%
    20:00 +18°C° 2.6 mm 1 mps 594 mmHg 96%
    21:00 +18°C° 2.6 mm 1 mps 594 mmHg 96%
    22:00 +16°C° 2.6 mm 1 mps 594 mmHg 96%
    23:00 +16°C° 2.6 mm 1 mps 594 mmHg 96%
    Show more